Weather History for KBVY - March, 2013

Change the Weather History Date:

Sunday, March 31, 2013

  Actual Average Record
Temperature  
Mean Temperature 42 °F -  
Max Temperature 57 °F 45 °F 73 °F (2006)
Min Temperature 27 °F 30 °F 26 °F (2008)
Degree Days  
Heating Degree Days 23    
Moisture  
Dew Point 28 °F    
Average Humidity 60    
Maximum Humidity 89    
Minimum Humidity 29    
Precipitation  
Precipitation 0.01 in - - ()
Sea Level Pressure  
Sea Level Pressure 30.01 in    
Wind  
Wind Speed 4 mph (SSE)    
Max Wind Speed 18 mph    
Max Gust Speed 28 mph    
Visibility 10 miles    
Events Rain    
Averages and records for this station are not official NWS values.
T = Trace of Precipitation, MM = Missing Value Source: NWS Daily Summary

Daily Weather History Graph

Daily Weather History Graph

Search for Another Location

Airport or City:

Trip Planner

Search our weather history database for the weather conditions in past years. The results will help you decide how hot, cold, wet, or windy it might be!

Date:

Astronomy

Mar. 31, 2013 Rise Set
Actual Time 6:27 AM EDT 7:08 PM EDT
Civil Twilight 5:58 AM EDT 7:37 PM EDT
Nautical Twilight 5:25 AM EDT 8:11 PM EDT
Astronomical Twilight 4:50 AM EDT 8:45 PM EDT
Moon No Moon Rise 9:06 AM EDT (3/31)
Length of Visible Light 13h 38m
Length of Day
12h 41m
Waning Gibbous, 78% of the Moon is Illuminated
Mar 31
Waning Gibbous
Apr 3
Last Quarter
Apr 10
New
Apr 18
First Quarter
Apr 25
Full

Hourly Weather History & Observations

Time (EDT) Temp. Windchill Dew Point Humidity Pressure Visibility Wind Dir Wind Speed Gust Speed Precip Events Conditions
12:53 AM 30.0 °F - 26.1 °F 85% 30.09 in 10.0 mi Calm Calm - N/A   Clear
1:53 AM 30.0 °F - 26.1 °F 85% 30.10 in 10.0 mi Calm Calm - N/A   Clear
2:53 AM 30.9 °F - 26.1 °F 82% 30.09 in 10.0 mi Calm Calm - N/A   Clear
3:53 AM 28.9 °F - 25.0 °F 85% 30.09 in 10.0 mi Calm Calm - N/A   Clear
4:53 AM 28.0 °F - 24.1 °F 85% 30.09 in 10.0 mi Calm Calm - N/A   Clear
5:53 AM 28.0 °F - 24.1 °F 85% 30.10 in 10.0 mi Calm Calm - N/A   Clear
6:53 AM 27.0 °F - 24.1 °F 89% 30.10 in 10.0 mi Calm Calm - N/A   Clear
7:53 AM 33.1 °F - 28.9 °F 85% 30.11 in 10.0 mi Calm Calm - N/A   Clear
8:53 AM 42.1 °F - 24.1 °F 49% 30.10 in 10.0 mi Calm Calm - N/A   Clear
9:53 AM 46.9 °F - 23.0 °F 39% 30.09 in 10.0 mi SSE 6.9 mph - N/A   Clear
10:53 AM 50.0 °F - 26.1 °F 39% 30.08 in 10.0 mi SE 6.9 mph - N/A   Clear
11:53 AM 53.1 °F - 26.1 °F 35% 30.07 in 10.0 mi SE 8.1 mph - N/A   Clear
12:53 PM 53.1 °F - 27.0 °F 37% 30.04 in 10.0 mi SE 11.5 mph - N/A   Clear
1:53 PM 52.0 °F - 28.9 °F 41% 30.01 in 10.0 mi SE 11.5 mph - N/A   Clear
2:53 PM 52.0 °F - 32.0 °F 47% 29.98 in 10.0 mi ESE 8.1 mph - N/A   Clear
3:53 PM 57.0 °F - 25.0 °F 29% 29.95 in 10.0 mi South 16.1 mph 25.3 mph N/A   Clear
4:53 PM 55.0 °F - 23.0 °F 29% 29.94 in 10.0 mi South 17.3 mph 25.3 mph N/A   Clear
5:53 PM 53.1 °F - 25.0 °F 34% 29.94 in 10.0 mi South 18.4 mph 27.6 mph N/A   Clear
6:53 PM 52.0 °F - 30.9 °F 45% 29.94 in 10.0 mi South 15.0 mph 26.5 mph N/A   Overcast
7:53 PM 50.0 °F - 33.8 °F 54% 29.94 in 10.0 mi South 8.1 mph - N/A   Overcast
8:53 PM 48.9 °F - 35.1 °F 59% 29.91 in 10.0 mi SSE 6.9 mph - 0.00 in Rain Light Rain
9:53 PM 45.0 °F 40.1 °F 37.0 °F 74% 29.88 in 10.0 mi SE 9.2 mph - 0.00 in   Overcast
10:53 PM 44.1 °F 38.1 °F 36.0 °F 73% 29.82 in 10.0 mi SE 11.5 mph - N/A   Overcast
11:53 PM 44.1 °F 37.7 °F 37.0 °F 76% 29.76 in 10.0 mi SE 12.7 mph - 0.01 in Rain Light Rain